Waarnemingen

Advertentie
Mijn weer
Fair Isle, Groot Brittannië (3008): temperatuur & dauwpunt: 21.04.2018 07:00:00 - 27.04.2018 07:00:00 (BST)Fair Isle, Groot Brittannië (3008): temperatuur -20cm & temperatuur -100cm: 21.04.2018 07:00:00 - 27.04.2018 07:00:00 (BST)Fair Isle, Groot Brittannië (3008): windsnelheid & windstoten: 21.04.2018 07:00:00 - 27.04.2018 07:00:00 (BST)Fair Isle, Groot Brittannië (3008): windrichting: 21.04.2018 07:00:00 - 27.04.2018 07:00:00 (BST)Fair Isle, Groot Brittannië (3008): luchtdruk: 21.04.2018 07:00:00 - 27.04.2018 07:00:00 (BST)Fair Isle, Groot Brittannië (3008): zicht: 21.04.2018 07:00:00 - 27.04.2018 07:00:00 (BST)Fair Isle, Groot Brittannië (3008): neerslag: 21.04.2018 07:00:00 - 27.04.2018 07:00:00 (BST)
Datum & Tijd tt [°C] td [°C] tt -20cm [°C] tt -100cm [°C] ff [km/u] ff [kn] fx [km/u] fx [kn] dd ppp [hPa] vv [km] rr [mm]
27.04.2018 07:00:00 5,5 0,9 - - 11 6 - - NNW - - -
27.04.2018 06:00:00 4,7 0,9 - - 16 9 - - NNW - - 0,0
27.04.2018 05:00:00 4,6 0,7 - - 16 9 - - NNW - - 0,0
27.04.2018 04:00:00 4,6 2,2 - - 15 8 - - N - - 0,0
27.04.2018 03:00:00 5,1 2,4 - - 18 10 - - NNW 1005,3 35 0,0
27.04.2018 02:00:00 5,0 2,8 - - 11 6 - - NW 1005,1 45 0,2
27.04.2018 01:00:00 5,4 2,7 - - 16 9 - - WNW 1004,8 25 0,2
27.04.2018 00:00:00 5,6 3,2 - - 22 12 - - NW 1004,3 15 0,0
26.04.2018 23:00:00 6,2 3,7 - - 21 11 - - NNW 1003,8 40 0,0
26.04.2018 22:00:00 6,6 3,1 - - 22 12 - - NNW 1003,4 50 0,0
26.04.2018 21:00:00 6,5 4,3 - - 13 7 - - NW 1002,7 40 0,0
26.04.2018 20:00:00 6,9 4,5 - - 16 9 - - WNW 1002,0 40 0,0
26.04.2018 19:00:00 7,7 5,3 - - 16 9 - - W 1001,5 26 0,0
26.04.2018 18:00:00 7,9 5,0 - - 18 10 - - W 1001,0 30 0,0
26.04.2018 17:00:00 7,9 5,0 - - 18 10 - - W 1000,6 30 0,0
26.04.2018 16:00:00 7,8 4,5 - - 18 10 - - WNW 1000,3 26 0,0
26.04.2018 15:00:00 8,4 5,3 - - 18 10 - - W 999,8 35 0,0
26.04.2018 14:00:00 8,5 5,4 - - 16 9 - - WZW 999,4 35 0,0
26.04.2018 13:00:00 8,0 5,6 - - 21 11 - - WZW 998,9 40 0,0
26.04.2018 12:00:00 7,7 5,7 - - 22 12 - - ZW 998,6 19 0,0
26.04.2018 11:00:00 6,4 4,3 - - 18 10 - - ZW 998,4 30 0,0
26.04.2018 10:00:00 6,7 4,6 7,9 6,9 18 10 - - ZW 998,1 29 0,0
26.04.2018 09:00:00 6,2 4,2 - - 22 12 - - WZW 998,0 26 0,0
26.04.2018 08:00:00 6,2 4,9 - - 18 10 - - ZZW 997,8 30 0,2
26.04.2018 07:00:00 5,5 4,9 - - 11 6 - - ZZW - 45 0,2
26.04.2018 06:00:00 5,2 4,2 - - 16 9 - - W - - 0,0
26.04.2018 05:00:00 6,2 5,1 - - 16 9 - - ZZW 997,8 23 0,0
26.04.2018 04:00:00 6,0 4,5 - - 15 8 - - ZW 998,0 16 0,0
26.04.2018 03:00:00 5,6 4,8 - - 11 6 - - ZZW 998,1 26 0,0
26.04.2018 02:00:00 5,7 4,5 - - 16 9 - - ZZW 998,5 35 0,2
26.04.2018 01:00:00 6,0 4,2 - - 21 11 - - Z 998,7 40 0,0
26.04.2018 00:00:00 6,1 4,8 - - 16 9 - - Z 998,7 50 0,0
25.04.2018 23:00:00 6,1 5,4 - - 16 9 - - ZZW 998,9 30 0,0
25.04.2018 22:00:00 6,1 5,4 - - 15 8 - - ZW 998,9 17 0,0
25.04.2018 21:00:00 6,0 4,9 - - 16 9 - - ZZW 998,8 40 0,0
25.04.2018 20:00:00 6,3 5,1 - - 16 9 - - ZZW 998,7 35 0,0
25.04.2018 19:00:00 7,2 5,3 - - 15 8 - - ZZW 998,7 28 0,0
25.04.2018 18:00:00 7,5 4,1 - - 15 8 - - WZW 998,8 40 0,0
25.04.2018 17:00:00 6,8 5,8 - - 16 9 - - WZW 999,1 35 0,0
25.04.2018 16:00:00 8,1 4,8 - - 13 7 - - ZZW 999,0 45 0,4
25.04.2018 15:00:00 7,4 6,2 - - 22 12 - - ZW 999,4 11 0,0
25.04.2018 14:00:00 8,9 5,4 - - 16 9 - - ZZW 999,3 45 0,0
25.04.2018 13:00:00 7,9 6,4 - - 21 11 - - ZW 999,4 35 0,0
25.04.2018 12:00:00 7,3 6,4 - - 21 11 - - ZW 999,5 16 0,0
25.04.2018 11:00:00 8,6 6,9 - - 22 12 - - ZW 999,3 35 0,0
25.04.2018 10:00:00 7,7 6,3 7,7 6,7 18 10 - - ZW 999,3 20 0,0
25.04.2018 09:00:00 7,4 6,7 - - 21 11 - - ZW 999,3 18 0,0
25.04.2018 08:00:00 7,0 6,4 - - 22 12 - - WZW 999,2 19 0,0
25.04.2018 07:00:00 6,5 6,1 - - 21 11 - - WZW 999,1 16 0,0
25.04.2018 06:00:00 6,4 6,1 - - 22 12 - - WZW 999,1 15 0,0
25.04.2018 05:00:00 6,1 5,7 - - 21 11 - - WZW 999,2 17 0,2
25.04.2018 04:00:00 6,1 3,9 - - 22 12 - - WZW 999,4 45 0,0
25.04.2018 03:00:00 6,3 5,9 - - 21 11 - - WZW 999,6 13 0,0
25.04.2018 02:00:00 6,3 5,9 - - 22 12 - - WZW 999,8 15 0,0
25.04.2018 01:00:00 6,3 6,0 - - 22 12 - - ZW 1000,0 13 0,0
25.04.2018 00:00:00 6,5 6,2 - - 22 12 - - WZW 1000,2 10 0,0
24.04.2018 23:00:00 6,4 5,4 - - 18 10 - - WZW 1000,3 20 0,0
24.04.2018 22:00:00 6,6 5,9 - - 21 11 - - WZW 1000,5 14 0,0
24.04.2018 21:00:00 6,7 5,7 - - 21 11 - - WZW 1000,5 15 0,0
24.04.2018 20:00:00 7,1 5,6 - - 16 9 - - WZW 1000,4 12 0,0
24.04.2018 19:00:00 7,7 5,7 - - 22 12 - - WZW 1000,4 23 0,0
24.04.2018 18:00:00 7,1 5,7 - - 21 11 - - WZW 1000,6 14 0,0
24.04.2018 17:00:00 7,7 6,3 - - 21 11 - - WZW 1000,7 18 0,0
24.04.2018 16:00:00 8,5 6,9 - - 22 12 - - WZW 1000,6 7 0,0
24.04.2018 15:00:00 7,7 6,3 - - 22 12 - - W 1000,6 17 0,0
24.04.2018 14:00:00 7,4 6,0 - - 22 12 - - W 1000,3 30 0,0
24.04.2018 13:00:00 6,5 5,6 - - 21 11 - - W 1000,0 4,0 0,0
24.04.2018 12:00:00 7,2 6,2 - - 22 12 - - WZW 999,6 35 0,0
24.04.2018 11:00:00 7,0 - - - 22 12 - - W 999,0 35 0,0
24.04.2018 10:00:00 6,8 - 7,7 6,7 16 9 - - W 998,4 20 0,2
24.04.2018 09:00:00 6,5 - - - 11 6 - - W 997,8 15 0,4
24.04.2018 08:00:00 6,0 - - - 11 6 - - W 997,5 12 0,4
24.04.2018 07:00:00 6,2 - - - 18 10 - - WZW 997,3 11 0,6
24.04.2018 06:00:00 6,1 - - - 22 12 - - WZW 997,2 13 0,2
24.04.2018 05:00:00 6,3 - - - 24 13 - - WZW 997,4 13 0,4
24.04.2018 04:00:00 6,4 - - - 24 13 - - WZW 997,5 10 0,2
24.04.2018 03:00:00 6,4 - - - 22 12 - - WZW 997,5 11 0,4
24.04.2018 02:00:00 6,5 - - - 22 12 - - WZW 997,7 11 0,2
24.04.2018 01:00:00 6,5 - - - 24 13 - - WZW 998,0 25 0,0
24.04.2018 00:00:00 6,4 - - - 24 13 - - WZW 998,2 22 0,0
23.04.2018 23:00:00 7,1 - - - 26 14 - - WZW 998,7 18 0,0
23.04.2018 22:00:00 7,0 - - - 26 14 - - ZW 998,8 15 0,0
23.04.2018 21:00:00 7,1 - - - 26 14 - - WZW 999,1 15 0,0
23.04.2018 20:00:00 7,3 - - - 31 17 - - WZW 999,2 13 0,0
23.04.2018 19:00:00 7,8 - - - 29 16 48 26 WZW 999,2 14 0,0
23.04.2018 18:00:00 8,1 - - - 31 17 50 27 WZW 999,5 13 0,0
23.04.2018 17:00:00 8,8 - - - 35 19 52 28 WZW 999,5 13 0,0
23.04.2018 16:00:00 8,3 - - - 35 19 52 28 WZW 999,6 12 0,0
23.04.2018 15:00:00 8,7 - - - 39 21 57 31 WZW 999,6 12 0,0
23.04.2018 14:00:00 9,3 - - - 37 20 55 30 WZW 999,4 13 0,0
23.04.2018 13:00:00 8,9 - - - 34 18 55 30 WZW 999,0 12 0,0
23.04.2018 12:00:00 8,9 - - - 39 21 55 30 WZW 998,7 19 0,0
23.04.2018 11:00:00 8,0 - - - 39 21 54 29 WZW 998,3 14 0,0
23.04.2018 10:00:00 8,4 - 7,7 6,7 31 17 - - WZW 997,7 17 0,0
23.04.2018 09:00:00 7,9 - - - 31 17 - - WZW 997,3 13 0,0
23.04.2018 08:00:00 7,3 - - - 26 14 - - W 996,9 17 0,0
23.04.2018 07:00:00 7,2 - - - 31 17 50 27 WZW 996,3 6 0,8
23.04.2018 06:00:00 6,9 - - - 24 13 - - ZW 995,9 11 0,0
23.04.2018 05:00:00 6,9 - - - 22 12 - - ZZW 996,2 12 0,4
23.04.2018 04:00:00 6,8 - - - 24 13 - - Z 996,7 25 0,0
23.04.2018 03:00:00 6,7 - - - 24 13 - - Z 997,2 30 0,0
23.04.2018 02:00:00 6,6 - - - 18 10 - - Z 997,6 23 0,0
23.04.2018 01:00:00 6,6 - - - 15 8 - - Z 998,0 35 0,2
23.04.2018 00:00:00 6,6 - - - 11 6 - - ZZW 998,3 20 0,0
22.04.2018 23:00:00 6,6 - - - 15 8 - - ZW 998,5 18 0,0
22.04.2018 22:00:00 6,8 - - - 24 13 - - WZW 998,3 26 0,0
22.04.2018 21:00:00 7,0 - - - 21 11 - - ZW 998,2 16 0,0
22.04.2018 20:00:00 7,0 - - - 11 6 - - ZZW 998,2 6 0,6
22.04.2018 19:00:00 7,3 - - - 11 6 - - ZW 998,1 6 0,0
22.04.2018 18:00:00 8,2 - - - 16 9 - - WNW 997,5 30 0,0
22.04.2018 17:00:00 7,8 - - - 21 11 - - WNW 997,8 25 0,0
22.04.2018 16:00:00 7,2 - - - 15 8 - - ZW 998,4 1,1 0,0
22.04.2018 15:00:00 7,7 - - - 21 11 - - WZW 998,7 0,2 0,0
22.04.2018 14:00:00 7,6 - - - 22 12 - - ZZO 999,0 0,8 0,0
22.04.2018 13:00:00 7,4 - - - 15 8 - - ZZO 999,6 0,8 0,0
22.04.2018 12:00:00 7,5 - - - 21 11 - - ZZO 1000,5 2,7 0,0
22.04.2018 11:00:00 7,5 - - - 24 13 - - ZZO 1001,1 1,2 0,0
22.04.2018 10:00:00 7,6 - 7,7 6,5 26 14 - - ZZO 1001,7 1,0 0,0
22.04.2018 09:00:00 7,3 - - - 28 15 - - ZO 1002,0 4,6 0,0
22.04.2018 08:00:00 7,2 - - - 24 13 48 26 ZO 1002,8 7 0,2
22.04.2018 07:00:00 7,0 - - - 29 16 57 31 ZO 1003,1 10 2,2
22.04.2018 06:00:00 7,2 - - - 29 16 46 25 ZO 1004,7 11 0,0
22.04.2018 05:00:00 7,0 - - - 31 17 - - ZO 1005,8 11 0,0
22.04.2018 04:00:00 6,9 - - - 26 14 - - ZO 1007,3 11 0,0
22.04.2018 03:00:00 6,8 - - - 18 10 - - ZO 1008,8 10 0,0
22.04.2018 02:00:00 6,9 - - - 21 11 - - ZO 1010,1 10 0,0
22.04.2018 01:00:00 7,0 - - - 22 12 - - ZO 1010,9 12 0,0
22.04.2018 00:00:00 6,9 - - - 21 11 - - ZO 1011,7 13 0,0
21.04.2018 23:00:00 6,8 - - - 18 10 - - ZO 1012,3 13 0,0
21.04.2018 22:00:00 6,9 - - - 18 10 - - ZO 1013,1 14 0,0
21.04.2018 21:00:00 6,9 - - - 16 9 - - ZO 1014,1 17 0,0
21.04.2018 20:00:00 7,0 - - - 18 10 - - ZO 1014,6 19 0,0
21.04.2018 19:00:00 7,2 - - - 18 10 - - ZO 1015,5 20 0,0
21.04.2018 18:00:00 7,4 - - - 16 9 - - ZO 1016,1 21 0,0
21.04.2018 17:00:00 7,5 - - - 18 10 - - ZO 1016,6 35 0,0
21.04.2018 16:00:00 8,3 - - - 22 12 - - ZZO 1017,5 22 0,0
21.04.2018 15:00:00 8,6 - - - 21 11 - - ZZO 1018,3 27 0,0
21.04.2018 14:00:00 9,9 - - - 21 11 - - ZZO 1018,9 21 0,0
21.04.2018 13:00:00 8,9 - - - 18 10 - - Z 1019,3 17 0,0
21.04.2018 12:00:00 8,7 - - - 18 10 - - ZZW 1019,8 22 0,0
21.04.2018 11:00:00 8,1 - - - 21 11 - - ZW 1020,0 20 0,0
21.04.2018 10:00:00 8,2 - 7,7 6,4 18 10 - - ZZW 1020,0 11 0,0
21.04.2018 09:00:00 7,5 - - - 13 7 - - ZZW 1019,9 8 0,0
21.04.2018 08:00:00 7,1 - - - 13 7 - - W 1019,7 9 0,0
21.04.2018 07:00:00 6,9 - - - 16 9 - - W 1019,5 5 0,0

tt = temperatuur
td = dauwpunt
tt -20cm = temperatuur -20cm
tt -100cm = temperatuur -100cm
ff = windsnelheid
fx = windstoten
dd = windrichting
ppp = luchtdruk
vv = zicht
rr = neerslag

Weerstations in de omgeving